Regional Weather Roundup
Issued by NWS

Home | Current Version | Previous Version | Text Only | Print | Product List | Glossary On
Versions: 1 2 3 4 5 6 7 8 9 10 11 12 13 14 15 16 17 18 19 20 21 22 23 24 25 26 27 28 29 30 31 32 33 34 35 36 37 38 39 40 41 42 43 44 45 46 47 48 49 50
000
ASUS45 KREV 080410
RWRNV
NEVADA REGIONAL WEATHER ROUNDUP
NATIONAL WEATHER SERVICE RENO NV
800 PM PST SUN FEB 07 2016

NOTE: "FAIR" INDICATES FEW OR NO CLOUDS BELOW 12,000 FEET WITH NO
SIGNIFICANT WEATHER AND/OR OBSTRUCTIONS TO VISIBILITY.

NVZ001-003-004-080500-
WESTERN NEVADA

CITY           SKY/WX    TMP DP  RH WIND       PRES   REMARKS
RENO           CLEAR     45  30  55 E6        30.56R
CARSON CITY    FAIR      37  30  75 CALM      30.58R
MINDEN         FAIR      36  30  80 N3        30.58R
SLIDE MTN        N/A     32  10  40 E41         N/A
PYRAMID LAKE     N/A     45 N/A N/A SW2         N/A
FALLON         CLEAR     33  30  88 S6        30.58R
LOVELOCK       CLEAR     43  33  68 NE13      30.58R
HAWTHORNE      CLEAR     37  32  81 S5        30.59R
$$

NVZ002-CAZ072-073-080500-
NORTHERN AND CENTRAL SIERRA

CITY           SKY/WX    TMP DP  RH WIND       PRES   REMARKS
S. LAKE TAHOE  CLEAR     33  24  69 VRB3      30.52R
TRUCKEE        CLEAR     30  27  86 CALM      30.55R
SQUAW VLY 8000   N/A     36  21  55 NE9         N/A
SUSANVILLE     CLEAR     37  32  81 CALM      30.57R
BLUE CANYON    CLEAR     52  21  29 E9G23     30.37R
MAMMOTH LAKES  FAIR      30  23  74 CALM      30.56R
BRIDGEPORT     FAIR      32  22  66 CALM      30.55R
$$

NVZ030-031-036-080500-
NORTHERN NEVADA

CITY           SKY/WX    TMP DP  RH WIND       PRES   REMARKS
ELKO           PTCLDY    20  14  77 E6        30.66R
WINNEMUCCA     CLEAR     35  27  72 NE7       30.61R
WENDOVER       CLEAR     30  25  80 CALM      30.65R
$$

NVZ035-037-080500-
CENTRAL NEVADA

CITY           SKY/WX    TMP DP  RH WIND       PRES   REMARKS
ELY            PTCLDY    15  10  80 S14       30.60R
EUREKA           N/A      1  32 100 CALM      30.62R
$$

NVZ013-014-080500-
SOUTH CENTRAL NEVADA

CITY           SKY/WX    TMP DP  RH WIND       PRES   REMARKS
TONOPAH        CLEAR     35  26  69 N15       30.55R
$$

NVZ017-020-022-080500-
SOUTHERN NEVADA

CITY           SKY/WX    TMP DP  RH WIND       PRES   REMARKS
LAS VEGAS      CLEAR     59  22  24 E7        30.34R
N. LAS VEGAS   CLEAR     61  23  23 N10       30.37R
NELLIS AFB     CLEAR     60  25  26 VRB7      30.37R
HENDERSON      CLEAR     59  22  24 NE9       30.39R
MERCURY        CLEAR     50  25  37 NE23      30.43R
$$




USA.gov is the U.S. government's official web portal to all federal, state and local government web resources and services.